Voltar ao catálogo

STARLINK-11181

AtivoComunicaçõesVLEO
NORAD 60059·PAYLOAD·🇺🇸 United States

Lançado Jun 19, 2024 de Vandenberg Space Force Base

Loading…

Próximas Passagens (próximas 24 horas)

TLE

AtualizadoSource: CelesTrak SupGP

Época: Sep 14, 2026, 22:42 UTC

1 60059C 24113A   26257.94631944 -.00058715  00000+0 -48357-3 0  2577
2 60059  53.1565 338.3760 0001049  84.6021 300.8275 15.69743155    14

Acompanhe STARLINK-11181 em tempo real com AllMySat

Download on the App Store